Location: Miss�
(46.9484°N, 0.1922°W)
Time: 23:16:35
(UTC+00:00)

Cosmos 968 Rocket - Pass Details

Date: 02 March 2021
Orbit: 740 x 771 km, 74.0° (Epoch: 14 April)

Event Time Altitude Azimuth Distance (km) Brightness Sun altitude
Rises 18:28:22 0° 338° (NNW) 3,248 7.0 -7.7°
Reaches altitude 10° 18:30:46 10° 340° (NNW) 2,321 6.2 -8.1°
Maximum altitude 18:36:02 76° 67° (ENE) 798 3.5 -9.0°
Drops below altitude 10° 18:41:18 10° 153° (SSE) 2,310 5.7 -9.9°
Sets 18:43:40 0° 155° (SSE) 3,231 6.5 -10.3°
